BREEZE-M DEB (TANK), 55843

Orbit data source: Space-Track

BREEZE-M DEB (TANK), 55843 is space debris in HEO originally from a launch on Sun, 12 Mar 2023 UTC launched from the Tyuratam Missile And Space Complex (TTMTR). Debris objects in space refer to the collection of defunct objects orbiting the Earth. Examples of debris include non-operational satellites, rocket bodies, and fragments generated from explosions, collisions, or faulty payload assembly.

Loading next visibility...
Identifier
55843, 2023-031C
Orbit
HEO
Country
Flag of CISCIS
Related business
Manufacturer
Khrunichev
Mission
Spacecraft
Bus & Motor
BRIZ TANK, Unknown motor
Mass
~1,000 kg wet, 1,000 kg dry
Launch date (UTC)
2023-03-12 (3 years ago)
Launch vehicle
Unknown
Launch site
Tyuratam Missile And Space Complex (TTMTR)
Object type
Payload
Rocket body
Debris
Shape & HBR
Torus, 2.0 m
Radar Cross Section
8.218 m², Large (>1 m²)

Expand to show TLE details & history
Last TLE update: 2 days ago

TLE from 2 days ago
0 BREEZE-M DEB (TANK)
1 55843U 23031C   26171.28853801  .00071865  28975-6  17528-2 0  9995
2 55843  48.6951  18.6212 5631303  92.8982 329.3212  4.70086071 27812
Epoch: 2026-06-20T06:55Z
TLE epoch observation values (Epoch: 2026-06-20T06:55:29.684Z)
Latitude
-0.0001°
Longitude
6.25442°
Altitude
4,184.535 km
Speed
7 km/s
True Right ascension
01h 14m 32s
True Declination
0° 00' 00"
Sunlit
Object was in daylight at epoch
Visualization orbit readout
Latitude
Unknown
Longitude
Unknown
Altitude
Unknown
Speed
Unknown
Apparent Right ascension
Unknown
Apparent Declination
Unknown
Sunlit
N/A
Visualization observer readout
Local Sidereal Time
21:37:34
Azimuth
Unknown
Elevation
Unknown
Doppler factor
Unknown
Orbital elements
Apogee altitude
17,152.589 km
Perigee altitude
198.321 km
Semi-major axis
15,053.592 km
Eccentricity
0.56313
Inclination
48.6951°
RAAN
18.6212°
Arg. of periapsis
92.8982°
True anomaly
267.21788°
Mean anomaly
329.3212°
Eccentric anomaly
301.94149°
Mean motion
1.17512 °/min
Orbital period
306.35 mins
BSTAR
0.0017528
Loading maneuver chart data...
Computing Atmospheric mass density...
Loading historical data...
Loading historical data...
Loading historical data...
Loading historical data...
Loading historical data...
Loading historical data...
Loading historical data...
Other satellites on launch #31 in the year 2023 (2023-03-12 UTC)

Documentation

Showing up to 5 results
|